{"data":{"norad_id":48370,"epoch":"2026-09-19T22:07:55.235712Z","epoch_age_seconds":83579,"freshness":"FRESH","line1":"1 48370U 21038T   26262.92216708  .00010529  00000+0  35083-3 0  9997","line2":"2 48370  53.1593 163.8380 0001665  98.4951 261.6239 15.31675256296987","mean_motion":15.31675256,"eccentricity":0.0001665,"inclination_deg":53.1593,"raan_deg":163.838,"arg_perigee_deg":98.4951,"mean_anomaly_deg":261.6239,"bstar":0.00035083,"rev_number":29698,"period_min":94.01470673102,"perigee_km":469.67340649406,"apogee_km":471.95410709607,"semimajor_km":6848.9507567951,"source":"CELESTRAK","updated_at":"2026-09-20T09:00:38.942003Z"}}